Hourly Weather Luka-Meleshkivs'ka

Today, 13 May, Thursday

Time Temperature Precipitation Wind Pressure Humidity
00:00 +6°C° 0 mm 2 mps 732 mmHg 88%
01:00 +6°C° 0 mm 2 mps 731 mmHg 89%
02:00 +5°C° 0 mm 2 mps 731 mmHg 91%
03:00 +5°C° 0 mm 2 mps 731 mmHg 91%
04:00 +4°C° 0 mm 3 mps 730 mmHg 92%
05:00 +4°C° 0 mm 3 mps 730 mmHg 92%
06:00 +7°C° 0 mm 3 mps 730 mmHg 85%
07:00 +8°C° 0 mm 4 mps 730 mmHg 78%
08:00 +9°C° 0 mm 5 mps 730 mmHg 71%
09:00 +9°C° 0 mm 5 mps 730 mmHg 74%
10:00 +9°C° 0 mm 6 mps 730 mmHg 76%
11:00 +9°C° 0 mm 6 mps 730 mmHg 79%
12:00 +9°C° 0 mm 6 mps 729 mmHg 78%
13:00 +10°C° 0 mm 7 mps 729 mmHg 78%
14:00 +11°C° 0 mm 7 mps 729 mmHg 77%
15:00 +11°C° 0.1 mm 7 mps 729 mmHg 77%
16:00 +12°C° 0.1 mm 7 mps 729 mmHg 78%
17:00 +14°C° 0.1 mm 7 mps 728 mmHg 79%
18:00 +11°C° 0 mm 6 mps 728 mmHg 83%
19:00 +10°C° 0 mm 6 mps 729 mmHg 86%
20:00 +8°C° 0 mm 5 mps 729 mmHg 89%
21:00 +9°C° 0 mm 5 mps 729 mmHg 88%
22:00 +9°C° 0 mm 5 mps 729 mmHg 87%
23:00 +9°C° 0 mm 5 mps 729 mmHg 86%

Tomorrow, 14 May, Friday

Time Temperature Precipitation Wind Pressure Humidity
00:00 +8°C° 0 mm 5 mps 728 mmHg 87%
01:00 +8°C° 0 mm 4 mps 728 mmHg 88%
02:00 +7°C° 0 mm 4 mps 728 mmHg 89%
03:00 +7°C° 0 mm 4 mps 728 mmHg 90%
04:00 +8°C° 0 mm 3 mps 728 mmHg 90%
05:00 +7°C° 0 mm 3 mps 728 mmHg 90%
06:00 +9°C° 0 mm 3 mps 728 mmHg 85%
07:00 +11°C° 0 mm 3 mps 728 mmHg 79%
08:00 +13°C° 0 mm 4 mps 728 mmHg 74%
09:00 +13°C° 0.1 mm 4 mps 728 mmHg 73%
10:00 +14°C° 0.1 mm 4 mps 728 mmHg 73%
11:00 +14°C° 0.1 mm 5 mps 728 mmHg 72%
12:00 +13°C° 0.2 mm 4 mps 728 mmHg 76%
13:00 +13°C° 0.2 mm 4 mps 728 mmHg 80%
14:00 +12°C° 0.2 mm 3 mps 728 mmHg 83%
15:00 +12°C° 0.1 mm 3 mps 728 mmHg 84%
16:00 +12°C° 0.1 mm 3 mps 728 mmHg 84%
17:00 +13°C° 0.1 mm 3 mps 728 mmHg 84%
18:00 +12°C° 0.2 mm 3 mps 728 mmHg 87%
19:00 +12°C° 0.2 mm 3 mps 729 mmHg 90%
20:00 +12°C° 0.2 mm 3 mps 729 mmHg 94%
21:00 +11°C° 0.1 mm 3 mps 729 mmHg 93%
22:00 +11°C° 0.1 mm 3 mps 729 mmHg 93%
23:00 +11°C° 0.1 mm 3 mps 729 mmHg 92%

Day after tomorrow, 15 May, Saturday

Time Temperature Precipitation Wind Pressure Humidity
00:00 +10°C° 0 mm 3 mps 730 mmHg 92%
01:00 +9°C° 0 mm 3 mps 730 mmHg 92%
02:00 +9°C° 0 mm 2 mps 730 mmHg 92%
03:00 +9°C° 0 mm 2 mps 730 mmHg 92%
04:00 +8°C° 0 mm 2 mps 730 mmHg 91%
05:00 +8°C° 0 mm 2 mps 731 mmHg 91%
06:00 +10°C° 0 mm 3 mps 731 mmHg 88%
07:00 +11°C° 0 mm 4 mps 731 mmHg 85%
08:00 +12°C° 0 mm 4 mps 732 mmHg 81%
09:00 +12°C° 0 mm 4 mps 732 mmHg 82%
10:00 +12°C° 0 mm 4 mps 732 mmHg 82%
11:00 +13°C° 0 mm 4 mps 733 mmHg 82%
12:00 +13°C° 0.1 mm 4 mps 733 mmHg 80%
13:00 +14°C° 0.1 mm 4 mps 733 mmHg 78%
14:00 +14°C° 0.1 mm 4 mps 733 mmHg 76%
15:00 +16°C° 0 mm 3 mps 733 mmHg 72%
16:00 +16°C° 0 mm 2 mps 733 mmHg 69%
17:00 +18°C° 0 mm 1 mps 733 mmHg 65%
18:00 +16°C° 0 mm 1 mps 733 mmHg 71%
19:00 +14°C° 0 mm 1 mps 733 mmHg 77%
20:00 +13°C° 0 mm 1 mps 733 mmHg 83%
21:00 +12°C° 0 mm 1 mps 733 mmHg 84%
22:00 +12°C° 0 mm 1 mps 733 mmHg 85%
23:00 +11°C° 0 mm 1 mps 733 mmHg 86%

16 May, Sunday

Time Temperature Precipitation Wind Pressure Humidity
00:00 +11°C° 0 mm 1 mps 733 mmHg 87%
01:00 +11°C° 0 mm 1 mps 733 mmHg 88%
02:00 +9°C° 0 mm 2 mps 733 mmHg 89%
03:00 +9°C° 0 mm 2 mps 733 mmHg 90%
04:00 +9°C° 0 mm 2 mps 733 mmHg 91%
05:00 +9°C° 0 mm 2 mps 733 mmHg 92%
06:00 +11°C° 0 mm 3 mps 733 mmHg 86%
07:00 +13°C° 0 mm 3 mps 733 mmHg 81%
08:00 +15°C° 0 mm 4 mps 733 mmHg 75%
09:00 +18°C° 0 mm 4 mps 733 mmHg 70%
10:00 +19°C° 0 mm 4 mps 733 mmHg 64%
11:00 +21°C° 0 mm 4 mps 733 mmHg 59%
12:00 +21°C° 0.3 mm 4 mps 732 mmHg 58%
13:00 +21°C° 0.3 mm 4 mps 732 mmHg 57%
14:00 +22°C° 0.3 mm 5 mps 732 mmHg 56%
15:00 +21°C° 0.1 mm 4 mps 732 mmHg 58%
16:00 +21°C° 0.1 mm 4 mps 731 mmHg 60%
17:00 +21°C° 0.1 mm 3 mps 731 mmHg 62%
18:00 +19°C° 0.1 mm 3 mps 731 mmHg 67%
19:00 +18°C° 0.1 mm 3 mps 731 mmHg 73%
20:00 +16°C° 0.1 mm 2 mps 730 mmHg 78%
21:00 +16°C° 0 mm 2 mps 730 mmHg 78%
22:00 +16°C° 0 mm 2 mps 730 mmHg 78%
23:00 +15°C° 0 mm 2 mps 730 mmHg 78%

17 May, Monday

Time Temperature Precipitation Wind Pressure Humidity
00:00 +15°C° 0 mm 2 mps 730 mmHg 79%
01:00 +14°C° 0 mm 2 mps 730 mmHg 79%
02:00 +14°C° 0 mm 1 mps 729 mmHg 80%
03:00 +14°C° 0 mm 1 mps 729 mmHg 81%
04:00 +14°C° 0 mm 1 mps 729 mmHg 81%
05:00 +14°C° 0 mm 1 mps 729 mmHg 82%
06:00 +15°C° 0 mm 2 mps 729 mmHg 81%
07:00 +16°C° 0 mm 2 mps 729 mmHg 80%
08:00 +16°C° 0 mm 3 mps 730 mmHg 79%
09:00 +17°C° 0.1 mm 3 mps 730 mmHg 76%
10:00 +18°C° 0.1 mm 3 mps 730 mmHg 74%
11:00 +19°C° 0.1 mm 3 mps 729 mmHg 71%
12:00 +19°C° 0.8 mm 3 mps 730 mmHg 72%
13:00 +19°C° 0.8 mm 4 mps 730 mmHg 74%
14:00 +19°C° 0.8 mm 5 mps 730 mmHg 75%
15:00 +18°C° 0.3 mm 4 mps 730 mmHg 76%
16:00 +18°C° 0.3 mm 3 mps 730 mmHg 76%
17:00 +18°C° 0.3 mm 3 mps 730 mmHg 77%
18:00 +17°C° 0.1 mm 3 mps 730 mmHg 81%
19:00 +14°C° 0.1 mm 3 mps 730 mmHg 85%
20:00 +14°C° 0.1 mm 2 mps 730 mmHg 89%
21:00 +14°C° 0 mm 2 mps 730 mmHg 89%
22:00 +13°C° 0 mm 2 mps 730 mmHg 89%
23:00 +12°C° 0 mm 1 mps 730 mmHg 90%

18 May, Tuesday

Time Temperature Precipitation Wind Pressure Humidity
00:00 +12°C° 0 mm 1 mps 730 mmHg 90%
01:00 +12°C° 0 mm 1 mps 730 mmHg 90%
02:00 +10°C° 0 mm 0 mps 731 mmHg 89%
03:00 +10°C° 0 mm 0 mps 731 mmHg 90%
04:00 +10°C° 0 mm 0 mps 731 mmHg 90%
05:00 +10°C° 0 mm 0 mps 731 mmHg 90%
06:00 +13°C° 0 mm 1 mps 731 mmHg 84%
07:00 +15°C° 0 mm 2 mps 731 mmHg 79%
08:00 +17°C° 0 mm 3 mps 731 mmHg 74%
09:00 +18°C° 0 mm 3 mps 731 mmHg 68%
10:00 +20°C° 0 mm 4 mps 731 mmHg 63%
11:00 +21°C° 0 mm 4 mps 731 mmHg 57%
12:00 +21°C° 0 mm 5 mps 730 mmHg 58%
13:00 +22°C° 0 mm 5 mps 730 mmHg 59%
14:00 +22°C° 0 mm 6 mps 730 mmHg 59%
15:00 +22°C° 0 mm 6 mps 729 mmHg 62%
16:00 +22°C° 0 mm 6 mps 729 mmHg 64%
17:00 +22°C° 0 mm 6 mps 728 mmHg 67%
18:00 +21°C° 0 mm 6 mps 728 mmHg 69%
19:00 +20°C° 0 mm 6 mps 728 mmHg 72%
20:00 +19°C° 0 mm 6 mps 728 mmHg 74%
21:00 +17°C° 0.2 mm 5 mps 728 mmHg 78%
22:00 +17°C° 0.2 mm 5 mps 729 mmHg 81%
23:00 +17°C° 0.2 mm 4 mps 729 mmHg 84%
Show more

We Need Your Consent

Meteoprog and our Service Providers may store and access personal data such as cookies, device identifiers or other similar technologies on your device and process such data to personalise content and ads, as well as provide social media features and to analyse the traffic.

  • Store and/or access information on your device

    Cookies, device identifiers or other information can be stored or accessed on your device for the purposes indicated above.

  • Personalised ads and content, ad and content measurement, audience insights, and products development

    Ads and content can be personalised based on a profile. More data can be added to better personalise ads and content. Ad and content performance can be measured. Insights about the audience who saw the ads and content can be derived. Such data can be used to develop or improve user’s experience, systems and software.

By clicking ‘I Agree’ you will allow the use of indicated cookies, device identifiers, web beacons or other similar technologies. Your settings can be changed in the browser on your device.

For certain purposes, legitimate interests may be relied on, rather than consent. You can read more about this in our Privacy and Cookie Policy.